Tracking 25620 objects as of 18-May-2022
HD Live streaming from Space Station
objects crossing your sky now

SL-8 DEB

Track SL-8 DEB now!
10-day predictions


NORAD ID: 2647
Int'l Code: 1965-073L
Perigee: 1,353.4 km
Apogee: 1,645.6 km
Inclination: 56.1 °
Period: 115.8 minutes
Semi major axis: 7870 km
RCS: 0.0558 m2 (small)
Launch date: September 18, 1965
Source: Commonwealth of Independent States (former USSR) (CIS)
Launch site: TYURATAM MISSILE AND SPACE COMPLEX (TTMTR)

Note: This is SATELLITE DEBRIS
aabbcc
Your satellite tracking list
Your tracking list is empty




NASA's NSSDC Master Catalog

Two Line Element Set (TLE):
1 02647U 65073L   22137.44666581  .00000189  00000-0  18981-2 0  9992
2 02647  56.0651 207.5809 0185668 239.9567 135.1221 12.43372161931097
Source of the keplerian elements: AFSPC